Location: Newark
(7.0858°N, 171.3717°E)
Time: 12:08:41
(UTC+00:00)

Vanguard 1 Rocket - Pass Details

Date: 28 November 2020
Orbit: 655 x 4222 km, 34.3° (Epoch: 23 January)

Event Time Altitude Azimuth Distance (km) Brightness Sun altitude
Exits shadow 18:05:27 - 309° (NW) 7,274 11.4 -6.6°
Reaches altitude 10° 18:10:31 10° 317° (NW) 6,230 11.1 -5.4°
Maximum altitude 18:23:24 23° 4° (N) 3,893 10.5 -2.4°
Drops below altitude 10° 18:31:35 10° 53° (NE) 3,866 11.1 -0.5°
Sets 18:34:57 0° 69° (ENE) 4,408 11.7 0.2°
